Regional Weather Roundup
Issued by NWS Cleveland, OH

Home | Current Version | Previous Version | Graphics & Text | Print | Product List | Glossary On
Versions: 1 2 3 4 5 6 7 8 9 10 11 12 13 14 15 16 17 18 19 20 21 22 23 24 25 26 27 28 29 30 31 32 33 34 35 36 37 38 39 40 41 42 43 44 45 46 47 48 49 50
000
ASUS41 KCLE 291802
RWRCLE
OHIO REGIONAL WEATHER ROUNDUP
NATIONAL WEATHER SERVICE CLEVELAND, OH
200 PM EDT TUE JUL 29 2014

NOTE: "FAIR" INDICATES FEW OR NO CLOUDS BELOW 12,000 FEET WITH NO
SIGNIFICANT WEATHER AND/OR OBSTRUCTIONS TO VISIBILITY.

OHZ001>008-015>018-024>027-034-035-043-044-291900-
   NORTHWEST OHIO

CITY           SKY/WX    TMP DP  RH WIND       PRES   REMARKS
DEFIANCE       PTSUNNY   71  51  49 VRB5      30.03F
FINDLAY        MOSUNNY   71  50  47 W6        30.03F
TOLEDO EXPRESS CLOUDY    69  50  50 SW9       30.02S
TOLEDO EXEC    CLOUDY    70  49  47 W12G18    30.02F
LIMA           MOSUNNY   69  53  56 VRB3      30.04F
$$

OHZ009>014-019>023-028>033-038-089-291900-
   NORTHEAST OHIO

CITY           SKY/WX    TMP DP  RH WIND       PRES   REMARKS
CLE-HOPKINS    PTSUNNY   68  51  54 VRB5      30.03F
CLE-LAKEFRONT  SUNNY     67  51  56 W12       30.01S
CUY CO. ARPT   NOT AVBL
LORAIN-ELYRIA  MOSUNNY   70  51  51 W9        30.03S
ASHTABULA      MOSUNNY   66  48  52 NW7       30.01F
AKRON-CANTON   PTSUNNY   67  49  52 NW8       30.03S
WOOSTER        PTSUNNY   66  48  52 NW7       30.04S
MANSFIELD      PTSUNNY   66  47  50 W6        30.05S
YOUNGSTOWN     CLOUDY    63  52  67 CALM      30.01F
$$

OHZ042-051>053-060>062-070>072-077>081-291900-
  SOUTHWEST OHIO

CITY           SKY/WX    TMP DP  RH WIND       PRES   REMARKS
CINC-COVINGTON MOSUNNY   70  50  49 VRB3      30.07F
CINC-LUNKEN    MOSUNNY   71  50  47 N12       30.07F
HAMILTON       SUNNY     70  51  51 NW7       30.08F
DAYTON         MOSUNNY   69  49  48 CALM      30.07F
WRIGHT-PAT AFB SUNNY     67  51  55 VRB2      30.06F
DAYTON GENERAL SUNNY     68  48  48 CALM      30.06F
WILMINGTON     MOSUNNY   67  48  50 N8        30.06F
$$

OHZ036-037-039>041-045>050-054>059-063>069-073>076-082>088-291900-
  CENTRAL AND SOUTHEAST OHIO

CITY           SKY/WX    TMP DP  RH WIND       PRES   REMARKS
COLUMBUS       PTSUNNY   69  50  50 VRB7      30.04F
OSU AIRPORT    PTSUNNY   67  49  52 CALM      30.05F
BOLTON FIELD   PTSUNNY   66  52  59 SW6       30.05F
RICKENBACK AFB   N/A     69  44  41 NW6       30.04S
NEWARK         CLOUDY    67  48  50 VRB6      30.04F
MARION         MOSUNNY   68  48  48 NW6       30.05F
LANCASTER      PTSUNNY   68  52  56 VRB7      30.05F
ZANESVILLE     CLOUDY    66  48  52 VRB5      30.04S
NEW PHILLY     CLOUDY    66  52  60 NW8       30.04S
$$


USA.gov is the U.S. government's official web portal to all federal, state and local government web resources and services.